[Date Prev][Date Next][Thread Prev][Thread Next] - [Date Index][Thread Index][Author Index]

2 Line ISS Keps 4-6



ISS
1 25544U 98067A   03096.19576501  .00029218  00000-0  37732-3 0  8606
2 25544  51.6364  21.7962 0004147  29.3128 121.8900 15.58709236249771


----
Via the sarex mailing list at AMSAT.ORG courtesy of AMSAT-NA.
To unsubscribe, send "unsubscribe sarex" to Majordomo@amsat.org



AMSAT Top AMSAT Home